320P/McNaught (2010)

Japanese version
Home page
Updated on April 25, 2015

---------------------------------------------------------------------

* Profile

* Orbital Elements

Epoch 2010 Feb. 13.0 TT = JDT 2455240.5
T 2010 Feb. 21.13145 TT                                 MPCW
q   0.9856526            (2000.0)            P               Q
n   0.18018738     Peri.    0.68337     +0.44854538     +0.89046411
a   3.1044629      Node   295.96953     -0.82041297     +0.37617663
e   0.6825046      Incl.    4.89320     -0.35458371     +0.25605626
P   5.47
From 59 observations 2004 Sept. 2-2015 Apr. 22, mean residual 0".5.

* Magnitudes Graph

        m1 = 18.5 + 5 log d + 15.0 log r

---------------------------------------------------------------------

The orbital elements are published on M.P.E.C. 2015-H86.
The magnitudes graphs are made with Comet for Windows.

---------------------------------------------------------------------

Copyright(C) Seiichi Yoshida (comet@aerith.net). All rights reserved.